Regional Weather Roundup
Issued by NWS Sioux Falls, SD

Home | Current Version | Previous Version | Text Only | Print | Product List | Glossary On
Versions: 1 2 3 4 5 6 7 8 9 10 11 12 13 14 15 16 17 18 19 20 21 22 23 24 25 26 27 28 29 30 31 32 33 34 35 36 37 38 39 40 41 42 43 44 45 46 47 48 49 50
000
ASUS43 KFSD 152202
RWRFSD

WEATHER ROUNDUP FOR SE SOUTH DAKOTA/SW MINNESOTA/NW IOWA
NATIONAL WEATHER SERVICE SIOUX FALLS SD
500 PM CDT MON SEP 15 2014

NOTE: "FAIR" INDICATES FEW OR NO CLOUDS BELOW 12,000 FEET WITH NO
SIGNIFICANT WEATHER AND OR OBSTRUCTIONS TO VISIBILITY.


SDZ038>040-050-052>070-152300-
SOUTHEAST SOUTH DAKOTA

CITY           SKY/WX    TMP DP  RH WIND       PRES   REMARKS
CHAMBERLAIN    SUNNY     63  32  31 CALM      30.23F
HURON          SUNNY     64  33  31 VRB3      30.23F
MADISON        FAIR      59  37  44 W6        30.24F
MITCHELL       SUNNY     64  38  38 CALM      30.24F
SIOUX FALLS    MOSUNNY   63  42  46 NW5       30.23F
WINNER         FAIR      64  35  34 S6        30.24F
YANKTON        SUNNY     63  39  42 N7        30.24S
$$

MNZ071-072-080-081-089-090-097-098-152300-
SOUTHWEST MINNESOTA

CITY           SKY/WX    TMP DP  RH WIND       PRES   REMARKS
FAIRMONT       SUNNY     63  36  36 NW5       30.21F
JACKSON        MOSUNNY   59  37  44 VRB3      30.23S
LUVERNE        SUNNY     63  37  39 N7        30.24S
MARSHALL       PTSUNNY   61  36  39 NW8       30.22S
MONTEVIDEO     SUNNY     64  39  39 NW8       30.22S
PIPESTONE      MOSUNNY   61  36  39 NW9         N/A
REDWOOD FALLS  SUNNY     63  38  39 N8        30.21S
TRACY          MOSUNNY   62  40  44 CALM      30.23S
WINDOM         MOSUNNY   59  37  44 NW8       30.23S
WORTHINGTON    CLOUDY    59  37  44 N8        30.24S
$$

IAZ001>003-012>014-020>022-031-032-NEZ013-014-SDZ071-152300-
NORTHWEST IOWA

CITY           SKY/WX    TMP DP  RH WIND       PRES   REMARKS
CHEROKEE       MOSUNNY   61  44  52 N8        30.23S
DENISON        CLOUDY    59  45  58 N8        30.22S
ESTHERVILLE    MOSUNNY   60  40  47 N8        30.22S
LE MARS        SUNNY     61  41  48 N6        30.25S
ORANGE CITY    MOSUNNY   63  37  39 N5        30.24S
SHELDON        MOSUNNY   61  39  44 NW5       30.22F
SIOUX CITY     MOSUNNY   64  42  44 N12       30.24F
SPENCER        MOSUNNY   62  40  44 N12       30.23F
STORM LAKE     MOSUNNY   61  46  59 N8        30.22F
$$

ABBREVIATIONS USED IN REMARKS
   TC - TEMPERATURE IN CELSIUS
  WCI - WIND CHILL INDEX
   HX - HEAT INDEX
  VSB - VISIBILITY



USA.gov is the U.S. government's official web portal to all federal, state and local government web resources and services.